Regional Weather Roundup
Issued by NWS

Home | Current Version | Previous Version | Graphics & Text | Print | Product List | Glossary On
Versions: 1 2 3 4 5 6 7 8 9 10 11 12 13 14 15 16 17 18 19 20 21 22 23 24 25 26 27 28 29 30 31 32 33 34 35 36 37 38 39 40 41 42 43 44 45 46 47 48 49 50
000
ASUS43 KIND 011709
RWRIN

WEATHER ROUNDUP FOR INDIANA
NATIONAL WEATHER SERVICE INDIANAPOLIS IN
100 PM EDT WED OCT 01 2014

NOTE: "FAIR" INDICATES FEW OR NO CLOUDS BELOW 12,000 FEET WITH NO
SIGNIFICANT WEATHER AND/OR OBSTRUCTIONS TO VISIBILITY.

* - STATION DOES NOT REPORT WEATHER SUCH AS PRECIPITATION OR FOG.

+ - STATION NOT QUALITY CONTROLLED BY THE NATIONAL WEATHER SERVICE.
    USE DATA WITH CAUTION...ESPECIALLY DEWPOINT AND RELATIVE
    HUMIDITY OBSERVATIONS.

INZ001>003-010>013-019-020-011800-
NORTHWEST INDIANA

CITY           SKY/WX    TMP DP  RH WIND       PRES   REMARKS
GARY /AIRPORT/ SUNNY     64  50  59 SE9       30.02F
KNOX *+        SUNNY     62  49  63 S6        30.03S
LA PORTE +     SUNNY     64  51  63 SE7       30.03F
MICHIGAN CITY+ SUNNY     63  46  55 S7        30.03S
MONTICELLO +   SUNNY     62  53  72 SE5       30.02F
RENSSELAER +   SUNNY     64  54  68 E10       30.01F
VALPARAISO     SUNNY     63  50  62 VRB7      30.03F

$$

LMZ046-743>745-011800-
SOUTHERN LAKE MICHIGAN

STATION/POSITION TIME  TEMP WIND        PRES
                       AIR  DIR/SP/G
                 (UTC) (F)  (DEG/KT/KT) (MB)
MICHIGAN CITY    1700   61  120/  7/  9   N/A

$$

INZ004-005-014>016-021>024-011800-
NORTH CENTRAL INDIANA

CITY           SKY/WX    TMP DP  RH WIND       PRES   REMARKS
ELKHART        CLOUDY    59  48  67 E6        30.05F
LOGANSPORT +   MOSUNNY   59  50  72 E7        30.05F
PERU/GRISSOM   PTSUNNY   59  57  94 VRB7      30.04F
ROCHESTER +    CLOUDY    57  52  82 SE7       30.06F HAZE
SOUTH BEND     MOSUNNY   63  48  59 SE12      30.04F
WARSAW +       CLOUDY    59  50  72 SE5       30.06S

$$

INZ006>009-017-018-025>027-011800-
NORTHEAST INDIANA

CITY           SKY/WX    TMP DP  RH WIND       PRES   REMARKS
ANGOLA *+      CLOUDY    59  48  67 SE6       30.07F
AUBURN +       SUNNY     61  48  63 SE3       30.07F
FORT WAYNE     PTSUNNY   60  51  72 S8        30.07S
HUNTINGTON +   CLOUDY    58  51  79 CALM      30.05F

$$

INZ028-029-035-036-043>045-051>053-011800-
WEST CENTRAL INDIANA

CITY           SKY/WX    TMP DP  RH WIND       PRES   REMARKS
GREENCASTLE +  SUNNY     68  55  64 E6        30.01F
LAFAYETTE      PTSUNNY   65  54  67 E6        30.01F
TERRE HAUTE    SUNNY     74  58  57 SE5       29.99F

$$

INZ030>032-037>040-046>048-054>057-064-065-011800-
CENTRAL INDIANA

CITY           SKY/WX    TMP DP  RH WIND       PRES   REMARKS
ANDERSON       SUNNY     63  52  67 E6        30.06F
CP ATTERBURY + SUNNY     70  54  56 SE3       30.02F
FRANKFORT +    MOSUNNY   68  52  55 E7        30.03F
INDIANAPOLIS   PTSUNNY   66  52  60 SE7       30.02S
-EAGLE CREEK   CLOUDY    68  52  56 E6        30.02F
KOKOMO *+      PTSUNNY   57  52  82 E7        30.05F
MARION +       CLOUDY    58  50  75 E7        30.06F
MT COMFORT *+  SUNNY     70  43  37 SE3       30.03F
SHELBYVILLE    PTSUNNY   71  53  52 VRB3      30.02F
ZIONSVILLE +   CLOUDY    67  51  57 SE6       30.03F

$$

INZ033-034-041-042-049-050-058-059-011800-
EAST CENTRAL INDIANA

CITY           SKY/WX    TMP DP  RH WIND       PRES   REMARKS
MUNCIE         CLOUDY    59  51  75 VRB6      30.05F

$$

INZ060-061-067>069-081>083-085>088-011800-
SOUTHWEST INDIANA

CITY           SKY/WX    TMP DP  RH WIND       PRES   REMARKS
EVANSVILLE     SUNNY     79  59  50 SW5       29.97F
WASHINGTON +   MOSUNNY   77  61  57 S5        29.97F

$$

INZ062-063-066-070>080-084-089>092-011800-
SOUTH CENTRAL AND SOUTHEAST INDIANA

CITY           SKY/WX    TMP DP  RH WIND       PRES   REMARKS
BLOOMINGTON    SUNNY     70  57  63 E5        30.01S
NORTH VERNON + SUNNY     73  54  49 CALM      30.02

$$




USA.gov is the U.S. government's official web portal to all federal, state and local government web resources and services.